﻿_id,日時,平均風速(m/s),平均風向,最大瞬間風速(m/s),最大風速時風向,気温(℃),湿度(%),10分間移動積算雨量(mm),1時間移動積算雨量(mm),日雨量(mm),累計雨量(mm),日射(日積算)(MJ/m2),日照(日積算)(min),現地気圧(hPa),海面気圧(hPa)
1,2022-03-21T00:00:00,0.6,北,1.8,北,4.2,89.3,0,0,0,0,13.32,345,1007.4,1021.9
2,2022-03-21T00:01:00,0.6,北,1.8,北,4.3,89.2,0,0,0,0,0,0,1007.4,1021.9
3,2022-03-21T00:02:00,0.5,北,1.4,西北西,4.3,89.4,0,0,0,0,0,0,1007.4,1021.9
4,2022-03-21T00:03:00,0.6,北北西,1.7,西北西,4.2,89.3,0,0,0,0,0,0,1007.4,1021.9
5,2022-03-21T00:04:00,0.7,北北西,1.7,西北西,4.3,89.2,0,0,0,0,0,0,1007.3,1021.8
6,2022-03-21T00:05:00,0.7,北北西,1.7,西北西,4.2,89.1,0,0,0,0,0,0,1007.3,1021.8
7,2022-03-21T00:06:00,0.8,北西,1.7,西北西,4.1,89,0,0,0,0,0,0,1007.3,1021.8
8,2022-03-21T00:07:00,0.8,北西,1.7,西北西,4.1,89,0,0,0,0,0,0,1007.4,1021.9
9,2022-03-21T00:08:00,0.8,西北西,1.7,西北西,4.1,89.3,0,0,0,0,0,0,1007.4,1021.9
10,2022-03-21T00:09:00,0.8,西北西,1.7,西北西,4.2,89.4,0,0,0,0,0,0,1007.4,1021.9
11,2022-03-21T00:10:00,0.9,西北西,1.7,西北西,4.1,89.3,0,0,0,0,0,0,1007.3,1021.8
12,2022-03-21T00:11:00,0.9,西北西,1.7,西北西,4.2,89.5,0,0,0,0,0,0,1007.3,1021.8
13,2022-03-21T00:12:00,0.8,西北西,1.7,西北西,4.2,89.6,0,0,0,0,0,0,1007.3,1021.8
14,2022-03-21T00:13:00,0.8,西北西,1.6,西北西,4.2,89.4,0,0,0,0,0,0,1007.3,1021.8
15,2022-03-21T00:14:00,0.7,西北西,1.5,西,4.2,89.5,0,0,0,0,0,0,1007.2,1021.7
16,2022-03-21T00:15:00,0.7,西北西,1.5,西,4.2,89.3,0,0,0,0,0,0,1007.2,1021.7
17,2022-03-21T00:16:00,0.7,北西,1.5,西,4.2,89.4,0,0,0,0,0,0,1007.2,1021.7
18,2022-03-21T00:17:00,0.7,北西,1.3,北西,4.3,89.7,0,0,0,0,0,0,1007.3,1021.8
19,2022-03-21T00:18:00,0.8,北西,1.3,北西,4.4,89.6,0,0,0,0,0,0,1007.4,1021.9
20,2022-03-21T00:19:00,0.8,北西,1.5,西北西,4.4,89.5,0,0,0,0,0,0,1007.4,1021.9
21,2022-03-21T00:20:00,0.9,北西,1.5,西北西,4.3,89.2,0,0,0,0,0,0,1007.4,1021.9
22,2022-03-21T00:21:00,0.9,北西,1.5,西北西,4.2,88.6,0,0,0,0,0,0,1007.3,1021.8
23,2022-03-21T00:22:00,1,西北西,1.7,西北西,4.2,88.5,0,0,0,0,0,0,1007.3,1021.8
24,2022-03-21T00:23:00,1.1,西北西,1.7,西北西,4.3,88.5,0,0,0,0,0,0,1007.3,1021.8
25,2022-03-21T00:24:00,1.1,西北西,1.7,西北西,4.4,89,0,0,0,0,0,0,1007.3,1021.8
26,2022-03-21T00:25:00,1.2,西北西,1.7,西北西,4.3,88.8,0,0,0,0,0,0,1007.3,1021.8
27,2022-03-21T00:26:00,1.1,西北西,1.7,西北西,4.2,88.3,0,0,0,0,0,0,1007.3,1021.8
28,2022-03-21T00:27:00,1.1,西北西,1.7,西北西,4.2,88.2,0,0,0,0,0,0,1007.3,1021.8
29,2022-03-21T00:28:00,1.1,西北西,1.7,西北西,4.3,88.3,0,0,0,0,0,0,1007.2,1021.7
30,2022-03-21T00:29:00,1.1,西北西,1.7,西北西,4.3,88.7,0,0,0,0,0,0,1007.3,1021.8
31,2022-03-21T00:30:00,1,西北西,1.7,西北西,4.2,88.2,0,0,0,0,0,0,1007.3,1021.8
32,2022-03-21T00:31:00,1,北西,1.7,西北西,4.2,88.2,0,0,0,0,0,0,1007.3,1021.8
33,2022-03-21T00:32:00,0.9,北西,1.6,北西,4.2,88.1,0,0,0,0,0,0,1007.3,1021.8
34,2022-03-21T00:33:00,0.8,北西,1.6,北西,4.2,88.5,0,0,0,0,0,0,1007.3,1021.8
35,2022-03-21T00:34:00,0.8,北西,1.6,北西,4.1,88.6,0,0,0,0,0,0,1007.4,1021.9
36,2022-03-21T00:35:00,0.7,北西,1.6,北西,4.1,88.4,0,0,0,0,0,0,1007.4,1021.9
37,2022-03-21T00:36:00,0.7,北北西,1.6,北西,4,88.5,0,0,0,0,0,0,1007.4,1021.9
38,2022-03-21T00:37:00,0.6,北北西,1.6,北西,4.1,88.7,0,0,0,0,0,0,1007.4,1021.9
39,2022-03-21T00:38:00,0.6,北北西,1.6,北西,4,89,0,0,0,0,0,0,1007.4,1021.9
40,2022-03-21T00:39:00,0.5,北,1.6,北西,4.1,89.2,0,0,0,0,0,0,1007.4,1021.9
41,2022-03-21T00:40:00,0.5,北,1.6,北西,4.2,89.7,0,0,0,0,0,0,1007.4,1021.9
42,2022-03-21T00:41:00,0.5,北北東,1.2,北,4.2,90.2,0,0,0,0,0,0,1007.5,1022
43,2022-03-21T00:42:00,0.5,北北東,1.4,東,4.2,90.1,0,0,0,0,0,0,1007.5,1022
44,2022-03-21T00:43:00,0.6,北北東,1.5,東北東,4.4,90.2,0,0,0,0,0,0,1007.5,1022
45,2022-03-21T00:44:00,0.6,北東,1.7,東北東,4.3,90.1,0,0,0,0,0,0,1007.5,1022
46,2022-03-21T00:45:00,0.7,北東,1.7,東北東,4.4,90.3,0,0,0,0,0,0,1007.6,1022.1
47,2022-03-21T00:46:00,0.7,北東,1.7,東北東,4.3,90.1,0,0,0,0,0,0,1007.6,1022.1
48,2022-03-21T00:47:00,0.8,北東,1.7,東北東,4.3,89.6,0,0,0,0,0,0,1007.6,1022.1
49,2022-03-21T00:48:00,0.8,北東,1.7,東北東,4.4,90,0,0,0,0,0,0,1007.7,1022.2
50,2022-03-21T00:49:00,0.8,北東,1.7,東北東,4.4,90,0,0,0,0,0,0,1007.7,1022.2
51,2022-03-21T00:50:00,0.9,北東,1.7,東北東,4.4,90,0,0,0,0,0,0,1007.6,1022.1
52,2022-03-21T00:51:00,0.9,北北東,1.7,東北東,4.2,89.6,0,0,0,0,0,0,1007.6,1022.1
53,2022-03-21T00:52:00,0.9,北北東,1.7,東北東,4.3,89.4,0,0,0,0,0,0,1007.7,1022.2
54,2022-03-21T00:53:00,0.8,北,1.7,東北東,4.3,89.7,0,0,0,0,0,0,1007.8,1022.3
55,2022-03-21T00:54:00,0.8,北北西,1.6,北北東,4.4,89.9,0,0,0,0,0,0,1007.8,1022.3
56,2022-03-21T00:55:00,0.8,北北西,1.6,北北東,4.3,89.8,0,0,0,0,0,0,1007.7,1022.2
57,2022-03-21T00:56:00,0.7,北西,1.4,西北西,4.4,89.8,0,0,0,0,0,0,1007.7,1022.2
58,2022-03-21T00:57:00,0.7,北西,1.4,西北西,4.3,89.3,0,0,0,0,0,0,1007.7,1022.2
59,2022-03-21T00:58:00,0.6,北西,1.4,西北西,4.1,89,0,0,0,0,0,0,1007.8,1022.3
60,2022-03-21T00:59:00,0.6,北西,1.1,北西,4.1,88.6,0,0,0,0,0,0,1007.8,1022.3
61,2022-03-21T01:00:00,0.5,北西,1.1,北西,4.1,88.6,0,0,0,0,0,0,1007.8,1022.3
62,2022-03-21T01:01:00,0.5,北北西,1.1,北西,4.1,88.6,0,0,0,0,0,0,1007.8,1022.3
63,2022-03-21T01:02:00,0.4,北北西,0.9,北西,4.2,88.9,0,0,0,0,0,0,1007.8,1022.3
64,2022-03-21T01:03:00,0.4,北北西,0.9,北西,4.2,88.9,0,0,0,0,0,0,1007.8,1022.3
65,2022-03-21T01:04:00,0.4,北,0.9,北西,4.2,89,0,0,0,0,0,0,1007.9,1022.4
66,2022-03-21T01:05:00,0.4,北,1,北東,4.2,89.1,0,0,0,0,0,0,1008,1022.5
67,2022-03-21T01:06:00,0.4,北北東,1.1,北東,4.3,89.4,0,0,0,0,0,0,1008,1022.5
68,2022-03-21T01:07:00,0.5,北北東,1.2,東北東,4.3,89.5,0,0,0,0,0,0,1007.8,1022.3
69,2022-03-21T01:08:00,0.6,北北東,1.3,東北東,4.2,89.3,0,0,0,0,0,0,1007.8,1022.3
70,2022-03-21T01:09:00,0.6,北東,1.5,東北東,4.2,89.1,0,0,0,0,0,0,1007.9,1022.4
71,2022-03-21T01:10:00,0.7,北東,1.6,東北東,4.2,89.3,0,0,0,0,0,0,1007.8,1022.3
72,2022-03-21T01:11:00,0.8,北東,2,東北東,4.2,89.2,0,0,0,0,0,0,1007.7,1022.2
73,2022-03-21T01:12:00,1,北東,2,東北東,4.2,89.4,0,0,0,0,0,0,1007.6,1022.1
74,2022-03-21T01:13:00,1.1,東北東,2.3,東北東,4.1,89.4,0,0,0,0,0,0,1007.6,1022.1
75,2022-03-21T01:14:00,1.2,東北東,2.3,東北東,4.2,89.4,0,0,0,0,0,0,1007.7,1022.2
76,2022-03-21T01:15:00,1.3,東北東,2.3,東北東,4.2,90,0,0,0,0,0,0,1007.7,1022.2
77,2022-03-21T01:16:00,1.4,東北東,2.3,東北東,4.2,89.6,0,0,0,0,0,0,1007.8,1022.3
78,2022-03-21T01:17:00,1.3,東北東,2.3,東北東,4.3,90.1,0,0,0,0,0,0,1007.8,1022.3
79,2022-03-21T01:18:00,1.3,東北東,2.3,東北東,4.2,89.9,0,0,0,0,0,0,1007.8,1022.3
80,2022-03-21T01:19:00,1.2,東北東,2.3,東北東,4.2,89.5,0,0,0,0,0,0,1007.6,1022.1
81,2022-03-21T01:20:00,1.2,東北東,2.3,東北東,4,89.2,0,0,0,0,0,0,1007.7,1022.2
82,2022-03-21T01:21:00,1.2,東北東,2.3,東北東,4.1,89.3,0,0,0,0,0,0,1007.8,1022.3
83,2022-03-21T01:22:00,1.1,東北東,2.3,東北東,4.3,90.1,0,0,0,0,0,0,1007.8,1022.3
84,2022-03-21T01:23:00,1.1,北東,2.1,北東,4.4,90.6,0,0,0,0,0,0,1007.8,1022.3
85,2022-03-21T01:24:00,1.1,北東,2.1,北東,4.4,90.6,0,0,0,0,0,0,1007.7,1022.2
86,2022-03-21T01:25:00,1,北東,2.1,北東,4.4,90.2,0,0,0,0,0,0,1007.7,1022.2
87,2022-03-21T01:26:00,1,北東,2.1,北東,4.3,89.9,0,0,0,0,0,0,1007.7,1022.2
88,2022-03-21T01:27:00,0.9,北東,2.1,北東,4.4,90,0,0,0,0,0,0,1007.7,1022.2
89,2022-03-21T01:28:00,0.9,北東,2.1,北東,4.3,89.8,0,0,0,0,0,0,1007.8,1022.3
90,2022-03-21T01:29:00,1,北東,2.1,北東,4.3,89.5,0,0,0,0,0,0,1007.7,1022.2
91,2022-03-21T01:30:00,1,北東,2.1,北東,4.4,89.5,0,0,0,0,0,0,1007.8,1022.3
92,2022-03-21T01:31:00,0.9,北東,1.9,北東,4.3,89.5,0,0,0,0,0,0,1007.8,1022.3
93,2022-03-21T01:32:00,0.9,北東,1.9,北東,4.3,89.2,0,0,0,0,0,0,1007.8,1022.3
94,2022-03-21T01:33:00,0.8,北東,1.9,北東,4.4,89.6,0,0,0,0,0,0,1007.8,1022.3
95,2022-03-21T01:34:00,0.8,北東,1.5,北北東,4.4,89.5,0,0,0,0,0,0,1007.8,1022.3
96,2022-03-21T01:35:00,0.8,北東,1.4,北北東,4.4,89.4,0,0,0,0,0,0,1007.8,1022.3
97,2022-03-21T01:36:00,0.7,北東,1.4,北北東,4.2,89.1,0,0,0,0,0,0,1007.8,1022.3
98,2022-03-21T01:37:00,0.8,北東,1.4,北北東,4.2,88.9,0,0,0,0,0,0,1007.7,1022.2
99,2022-03-21T01:38:00,0.8,北東,1.4,北北東,4.3,89,0,0,0,0,0,0,1007.7,1022.2
100,2022-03-21T01:39:00,0.8,北東,1.4,北北東,4.3,89.3,0,0,0,0,0,0,1007.8,1022.3
101,2022-03-21T01:40:00,0.8,北東,1.4,北北東,4.4,89.6,0,0,0,0,0,0,1007.8,1022.3
102,2022-03-21T01:41:00,0.8,北東,1.4,北北東,4.5,90,0,0,0,0,0,0,1007.8,1022.3
103,2022-03-21T01:42:00,0.8,北東,1.4,北北東,4.4,89.5,0,0,0,0,0,0,1007.8,1022.3
104,2022-03-21T01:43:00,0.7,北東,1.4,北北東,4.5,89.5,0,0,0,0,0,0,1007.8,1022.3
105,2022-03-21T01:44:00,0.6,北東,1.4,北北東,4.5,89.4,0,0,0,0,0,0,1007.8,1022.3
106,2022-03-21T01:45:00,0.5,北東,1.3,北東,4.4,89.2,0,0,0,0,0,0,1007.9,1022.4
107,2022-03-21T01:46:00,0.5,北東,1.3,北東,4.3,89.1,0,0,0,0,0,0,1007.9,1022.4
108,2022-03-21T01:47:00,0.5,北北東,1.3,北東,4.4,88.8,0,0,0,0,0,0,1007.9,1022.4
109,2022-03-21T01:48:00,0.5,北北東,1.7,北,4.5,89.3,0,0,0,0,0,0,1007.8,1022.3
110,2022-03-21T01:49:00,0.6,北北東,1.8,北,4.5,89.3,0,0,0,0,0,0,1007.8,1022.3
111,2022-03-21T01:50:00,0.6,北北東,1.8,北,4.5,88.9,0,0,0,0,0,0,1007.9,1022.4
112,2022-03-21T01:51:00,0.6,北,1.8,北,4.5,88.7,0,0,0,0,0,0,1007.9,1022.4
113,2022-03-21T01:52:00,0.6,北,1.8,北,4.3,88,0,0,0,0,0,0,1007.8,1022.3
114,2022-03-21T01:53:00,0.7,北北西,1.8,北,4.2,87.7,0,0,0,0,0,0,1007.8,1022.3
115,2022-03-21T01:54:00,0.7,北北西,1.8,北,4.3,87.6,0,0,0,0,0,0,1007.9,1022.4
116,2022-03-21T01:55:00,0.7,北西,1.8,北,4.2,88,0,0,0,0,0,0,1007.8,1022.3
117,2022-03-21T01:56:00,0.7,北西,1.8,北,4.2,88,0,0,0,0,0,0,1007.9,1022.4
118,2022-03-21T01:57:00,0.7,北西,1.8,北,4.2,88.3,0,0,0,0,0,0,1007.9,1022.4
119,2022-03-21T01:58:00,0.7,西北西,1.8,北,4.2,88.4,0,0,0,0,0,0,1007.9,1022.4
120,2022-03-21T01:59:00,0.7,西北西,1.6,北,4.1,88.8,0,0,0,0,0,0,1007.8,1022.3
121,2022-03-21T02:00:00,0.6,西北西,1.1,北西,4.2,89,0,0,0,0,0,0,1007.7,1022.2
122,2022-03-21T02:01:00,0.6,西北西,1,北西,4.2,89.5,0,0,0,0,0,0,1007.7,1022.2
123,2022-03-21T02:02:00,0.5,北西,1,北西,4.2,89.6,0,0,0,0,0,0,1007.7,1022.2
124,2022-03-21T02:03:00,0.5,北西,1,北西,4.2,89.7,0,0,0,0,0,0,1007.7,1022.2
125,2022-03-21T02:04:00,0.4,北西,1,北西,4.2,89.7,0,0,0,0,0,0,1007.7,1022.2
126,2022-03-21T02:05:00,0.4,北北西,1,北西,4.2,89.9,0,0,0,0,0,0,1007.6,1022.1
127,2022-03-21T02:06:00,0.3,北北西,1,北西,4.2,89.8,0,0,0,0,0,0,1007.6,1022.1
128,2022-03-21T02:07:00,0.3,北,1,北西,4.1,90,0,0,0,0,0,0,1007.6,1022.1
129,2022-03-21T02:08:00,0.2,静穏,1,北西,4.1,89.9,0,0,0,0,0,0,1007.6,1022.1
130,2022-03-21T02:09:00,0.2,静穏,1,北西,4.1,89.8,0,0,0,0,0,0,1007.6,1022.1
131,2022-03-21T02:10:00,0.2,静穏,0.6,北東,4.1,90.2,0,0,0,0,0,0,1007.6,1022.1
132,2022-03-21T02:11:00,0.2,静穏,0.7,北北東,4.1,90.1,0,0,0,0,0,0,1007.6,1022.1
133,2022-03-21T02:12:00,0.2,静穏,0.7,北北東,4.2,90.6,0,0,0,0,0,0,1007.6,1022.1
134,2022-03-21T02:13:00,0.2,静穏,0.7,北北東,4,90.2,0,0,0,0,0,0,1007.7,1022.2
135,2022-03-21T02:14:00,0.2,静穏,0.7,北北東,3.9,89.9,0,0,0,0,0,0,1007.7,1022.2
136,2022-03-21T02:15:00,0.2,静穏,0.7,北北東,4,90,0,0,0,0,0,0,1007.7,1022.2
137,2022-03-21T02:16:00,0.2,静穏,0.7,北北東,3.9,89.9,0,0,0,0,0,0,1007.7,1022.2
138,2022-03-21T02:17:00,0.2,静穏,0.7,北北東,4,90.2,0,0,0,0,0,0,1007.7,1022.2
139,2022-03-21T02:18:00,0.2,静穏,0.7,北北東,4,90.7,0,0,0,0,0,0,1007.7,1022.2
140,2022-03-21T02:19:00,0.2,静穏,0.7,北北東,4.1,90.9,0,0,0,0,0,0,1007.7,1022.2
141,2022-03-21T02:20:00,0.2,静穏,0.7,北北東,3.9,90.6,0,0,0,0,0,0,1007.6,1022.1
142,2022-03-21T02:21:00,0.2,静穏,1,北北東,3.9,90.8,0,0,0,0,0,0,1007.6,1022.1
143,2022-03-21T02:22:00,0.3,北,1,北北東,4,91.1,0,0,0,0,0,0,1007.6,1022.1
144,2022-03-21T02:23:00,0.3,北,1,北北東,4.1,91.2,0,0,0,0,0,0,1007.6,1022.1
145,2022-03-21T02:24:00,0.3,北,1,北北東,4,91.2,0,0,0,0,0,0,1007.6,1022.1
146,2022-03-21T02:25:00,0.4,北,1,北北東,3.8,90.6,0,0,0,0,0,0,1007.6,1022.1
147,2022-03-21T02:26:00,0.3,北,1,北北東,3.9,90.8,0,0,0,0,0,0,1007.6,1022.1
148,2022-03-21T02:27:00,0.3,北北東,1,北北東,4,91.3,0,0,0,0,0,0,1007.5,1022
149,2022-03-21T02:28:00,0.3,北北東,1,北北東,4,91.4,0,0,0,0,0,0,1007.4,1021.9
150,2022-03-21T02:29:00,0.3,北北東,1,北北東,3.9,91.3,0,0,0,0,0,0,1007.4,1021.9
151,2022-03-21T02:30:00,0.3,北,1,北北東,3.8,91,0,0,0,0,0,0,1007.4,1021.9
152,2022-03-21T02:31:00,0.2,静穏,0.9,北東,3.9,91.2,0,0,0,0,0,0,1007.4,1021.9
153,2022-03-21T02:32:00,0.2,静穏,1,北西,4,91.6,0,0,0,0,0,0,1007.4,1021.9
154,2022-03-21T02:33:00,0.2,静穏,1,北西,3.8,91.4,0,0,0,0,0,0,1007.5,1022
155,2022-03-21T02:34:00,0.2,静穏,1,北西,3.8,91.3,0,0,0,0,0,0,1007.5,1022
156,2022-03-21T02:35:00,0.3,北北西,1,北西,3.9,91.7,0,0,0,0,0,0,1007.5,1022
157,2022-03-21T02:36:00,0.3,北北西,1.2,北西,3.9,91.9,0,0,0,0,0,0,1007.5,1022
158,2022-03-21T02:37:00,0.4,北西,1.2,北西,3.8,91.6,0,0,0,0,0,0,1007.6,1022.1
159,2022-03-21T02:38:00,0.4,北西,1.2,北西,3.8,91.8,0,0,0,0,0,0,1007.6,1022.1
160,2022-03-21T02:39:00,0.4,北西,1.2,北西,3.8,91.8,0,0,0,0,0,0,1007.6,1022.1
161,2022-03-21T02:40:00,0.5,北西,1.2,北西,3.8,91.9,0,0,0,0,0,0,1007.6,1022.1
162,2022-03-21T02:41:00,0.5,北北西,1.2,北西,3.8,91.9,0,0,0,0,0,0,1007.7,1022.2
163,2022-03-21T02:42:00,0.5,北北西,1.2,北西,3.8,91.9,0,0,0,0,0,0,1007.7,1022.2
164,2022-03-21T02:43:00,0.5,北西,1.4,北西,3.8,92.2,0,0,0,0,0,0,1007.7,1022.2
165,2022-03-21T02:44:00,0.5,北西,1.4,北西,3.7,91.9,0,0,0,0,0,0,1007.6,1022.1
166,2022-03-21T02:45:00,0.5,北北西,1.4,北西,3.7,91.7,0,0,0,0,0,0,1007.6,1022.1
167,2022-03-21T02:46:00,0.6,北北西,1.7,北北東,3.7,91.9,0,0,0,0,0,0,1007.5,1022
168,2022-03-21T02:47:00,0.7,北北西,1.7,北北東,3.6,91.6,0,0,0,0,0,0,1007.4,1021.9
169,2022-03-21T02:48:00,0.7,北北西,1.7,北北東,3.6,91.6,0,0,0,0,0,0,1007.5,1022
170,2022-03-21T02:49:00,0.7,北北西,1.7,北北東,3.6,91.9,0,0,0,0,0,0,1007.5,1022
171,2022-03-21T02:50:00,0.7,北,1.7,北北東,3.8,92.2,0,0,0,0,0,0,1007.5,1022
172,2022-03-21T02:51:00,0.7,北北西,1.7,北北東,3.6,92,0,0,0,0,0,0,1007.5,1022
173,2022-03-21T02:52:00,0.8,北北西,1.7,北北東,3.8,92.4,0,0,0,0,0,0,1007.5,1022
174,2022-03-21T02:53:00,0.8,北,1.7,北北東,3.7,92.6,0,0,0,0,0,0,1007.5,1022
175,2022-03-21T02:54:00,0.9,北北西,1.7,北北東,3.7,92.1,0,0,0,0,0,0,1007.6,1022.1
176,2022-03-21T02:55:00,0.9,北北西,1.9,北西,3.8,92.4,0,0,0,0,0,0,1007.6,1022.1
177,2022-03-21T02:56:00,0.9,北北西,2,北西,3.7,92.4,0,0,0,0,0,0,1007.6,1022.1
178,2022-03-21T02:57:00,0.9,北北西,2,北西,3.7,92.1,0,0,0,0,0,0,1007.7,1022.2
179,2022-03-21T02:58:00,0.9,北西,2,北西,3.8,92.3,0,0,0,0,0,0,1007.7,1022.2
180,2022-03-21T02:59:00,0.9,北西,2,北西,3.7,92.2,0,0,0,0,0,0,1007.7,1022.2
181,2022-03-21T03:00:00,0.9,北西,2,北西,3.7,92.3,0,0,0,0,0,0,1007.8,1022.3
182,2022-03-21T03:01:00,0.9,北西,2,北西,3.7,92.3,0,0,0,0,0,0,1007.8,1022.3
183,2022-03-21T03:02:00,0.8,北西,2,北西,3.6,91.9,0,0,0,0,0,0,1007.8,1022.3
184,2022-03-21T03:03:00,0.8,北西,2,北西,3.6,91.7,0,0,0,0,0,0,1007.7,1022.2
185,2022-03-21T03:04:00,0.7,北西,2,北西,3.6,92,0,0,0,0,0,0,1007.7,1022.2
186,2022-03-21T03:05:00,0.6,北西,2,北西,3.7,92.2,0,0,0,0,0,0,1007.8,1022.3
187,2022-03-21T03:06:00,0.6,北西,1.9,北西,3.6,92.3,0,0,0,0,0,0,1007.8,1022.3
188,2022-03-21T03:07:00,0.5,北西,1.5,北西,3.7,92.3,0,0,0,0,0,0,1007.8,1022.3
189,2022-03-21T03:08:00,0.5,西北西,1.5,北西,3.8,92.6,0,0,0,0,0,0,1007.8,1022.3
190,2022-03-21T03:09:00,0.5,西北西,1.2,西北西,3.7,92.7,0,0,0,0,0,0,1007.8,1022.3
191,2022-03-21T03:10:00,0.5,北西,1.2,西北西,3.7,92.4,0,0,0,0,0,0,1007.8,1022.3
192,2022-03-21T03:11:00,0.6,北西,1.2,西北西,3.6,92.2,0,0,0,0,0,0,1007.9,1022.4
193,2022-03-21T03:12:00,0.6,北西,1.4,北東,3.7,92.2,0,0,0,0,0,0,1007.9,1022.4
194,2022-03-21T03:13:00,0.7,北西,1.4,北東,3.7,92.2,0,0,0,0,0,0,1007.8,1022.3
195,2022-03-21T03:14:00,0.8,北北西,1.8,北北東,3.6,92.2,0,0,0,0,0,0,1007.9,1022.4
196,2022-03-21T03:15:00,0.9,北北西,1.8,北北東,3.7,92.1,0,0,0,0,0,0,1007.9,1022.4
197,2022-03-21T03:16:00,1,北,2.2,北北東,3.7,92.3,0,0,0,0,0,0,1007.9,1022.4
198,2022-03-21T03:17:00,1,北,2.2,北北東,3.6,92.1,0,0,0,0,0,0,1007.9,1022.4
199,2022-03-21T03:18:00,1.1,北北東,2.2,北北東,3.6,92.1,0,0,0,0,0,0,1007.8,1022.3
200,2022-03-21T03:19:00,1.1,北北東,2.2,北北東,3.6,92,0,0,0,0,0,0,1007.8,1022.3
201,2022-03-21T03:20:00,1.2,北北東,2.2,北北東,3.8,92.7,0,0,0,0,0,0,1007.8,1022.3
202,2022-03-21T03:21:00,1.3,北北東,2.5,北北東,3.7,92.5,0,0,0,0,0,0,1007.9,1022.4
203,2022-03-21T03:22:00,1.4,北北東,2.5,北北東,3.7,92.1,0,0,0,0,0,0,1007.9,1022.4
204,2022-03-21T03:23:00,1.4,北北東,2.8,北北東,3.8,92.7,0,0,0,0,0,0,1007.9,1022.4
205,2022-03-21T03:24:00,1.5,北北東,3,北,3.8,92.6,0,0,0,0,0,0,1007.9,1022.4
206,2022-03-21T03:25:00,1.6,北北東,3.1,北北東,3.9,92.5,0,0,0,0,0,0,1008,1022.5
207,2022-03-21T03:26:00,1.7,北北東,3.1,北北東,3.9,92.7,0,0,0,0,0,0,1007.9,1022.4
208,2022-03-21T03:27:00,1.8,北北東,3.1,北北東,3.8,92.1,0,0,0,0,0,0,1008,1022.5
209,2022-03-21T03:28:00,1.8,北北東,3.1,北北東,3.7,91.6,0,0,0,0,0,0,1007.9,1022.4
210,2022-03-21T03:29:00,1.8,北北東,3.1,北北東,3.8,92,0,0,0,0,0,0,1007.8,1022.3
211,2022-03-21T03:30:00,1.9,北北東,3.1,北北東,4,92,0,0,0,0,0,0,1007.8,1022.3
212,2022-03-21T03:31:00,1.8,北北東,3.1,北北東,4,92.4,0,0,0,0,0,0,1007.7,1022.2
213,2022-03-21T03:32:00,1.8,北北東,3.1,北北東,3.9,91.7,0,0,0,0,0,0,1007.7,1022.2
214,2022-03-21T03:33:00,1.7,北北東,3.1,北北東,3.8,91.1,0,0,0,0,0,0,1007.7,1022.2
215,2022-03-21T03:34:00,1.6,北北東,3.1,北北東,3.9,91.3,0,0,0,0,0,0,1007.8,1022.3
216,2022-03-21T03:35:00,1.5,北北東,3.1,北北東,3.8,91.4,0,0,0,0,0,0,1007.8,1022.3
217,2022-03-21T03:36:00,1.4,北北東,3.1,北北東,4.1,91.8,0,0,0,0,0,0,1007.8,1022.3
218,2022-03-21T03:37:00,1.3,北北東,2.5,北東,3.8,91.4,0,0,0,0,0,0,1007.7,1022.2
219,2022-03-21T03:38:00,1.2,北北東,2.5,北東,3.8,90.8,0,0,0,0,0,0,1007.7,1022.2
220,2022-03-21T03:39:00,1.2,北北東,2.5,北東,3.7,91,0,0,0,0,0,0,1007.7,1022.2
221,2022-03-21T03:40:00,1.1,北北東,2,北北東,3.6,90.6,0,0,0,0,0,0,1007.8,1022.3
222,2022-03-21T03:41:00,1,北北東,1.9,北東,3.6,90.6,0,0,0,0,0,0,1007.8,1022.3
223,2022-03-21T03:42:00,0.9,北北東,1.9,北東,3.7,90.8,0,0,0,0,0,0,1007.8,1022.3
224,2022-03-21T03:43:00,0.9,北北東,1.8,北北東,3.6,91,0,0,0,0,0,0,1007.8,1022.3
225,2022-03-21T03:44:00,0.9,北北東,1.8,北北東,3.6,91,0,0,0,0,0,0,1007.8,1022.3
226,2022-03-21T03:45:00,0.9,北北東,1.8,北北東,3.7,91.3,0,0,0,0,0,0,1007.9,1022.4
227,2022-03-21T03:46:00,0.9,北北東,1.5,北北東,3.7,91.4,0,0,0,0,0,0,1007.8,1022.3
228,2022-03-21T03:47:00,0.8,北北東,1.3,北東,3.8,91.5,0,0,0,0,0,0,1007.8,1022.3
229,2022-03-21T03:48:00,0.8,北北東,1.3,北東,3.9,92,0,0,0,0,0,0,1007.7,1022.2
230,2022-03-21T03:49:00,0.9,北北東,1.3,北東,3.8,91.8,0,0,0,0,0,0,1007.7,1022.2
231,2022-03-21T03:50:00,0.9,北東,1.3,北東,3.8,91.4,0,0,0,0,0,0,1007.8,1022.3
232,2022-03-21T03:51:00,0.8,北東,1.3,北東,3.7,91.1,0,0,0,0,0,0,1007.8,1022.3
233,2022-03-21T03:52:00,0.8,北東,1.3,北東,3.6,90.7,0,0,0,0,0,0,1007.8,1022.3
234,2022-03-21T03:53:00,0.8,北東,1.3,北東,3.4,90.4,0,0,0,0,0,0,1007.8,1022.3
235,2022-03-21T03:54:00,0.8,北東,1.3,北東,3.5,90.4,0,0,0,0,0,0,1007.8,1022.3
236,2022-03-21T03:55:00,0.7,北東,1.3,東北東,3.6,91.1,0,0,0,0,0,0,1007.8,1022.3
237,2022-03-21T03:56:00,0.7,北東,1.3,東北東,3.6,91.2,0,0,0,0,0,0,1007.8,1022.3
238,2022-03-21T03:57:00,0.6,北東,1.3,東北東,3.6,91.6,0,0,0,0,0,0,1007.8,1022.3
239,2022-03-21T03:58:00,0.6,東北東,1.3,東北東,3.5,91.3,0,0,0,0,0,0,1007.8,1022.3
240,2022-03-21T03:59:00,0.5,東北東,1.3,東北東,3.6,91.5,0,0,0,0,0,0,1007.9,1022.4
241,2022-03-21T04:00:00,0.5,東北東,1.3,東北東,3.4,91.6,0,0,0,0,0,0,1007.8,1022.3
242,2022-03-21T04:01:00,0.5,東北東,1.3,東北東,3.4,91.2,0,0,0,0,0,0,1007.9,1022.4
243,2022-03-21T04:02:00,0.5,東北東,1.3,東北東,3.4,91.4,0,0,0,0,0,0,1007.9,1022.4
244,2022-03-21T04:03:00,0.5,東北東,1.3,東北東,3.5,91.8,0,0,0,0,0,0,1007.9,1022.4
245,2022-03-21T04:04:00,0.4,東北東,1.1,北東,3.4,91.9,0,0,0,0,0,0,1007.9,1022.4
246,2022-03-21T04:05:00,0.4,東北東,1.1,北東,3.5,91.8,0,0,0,0,0,0,1008,1022.5
247,2022-03-21T04:06:00,0.4,東北東,1.1,北東,3.5,92.2,0,0,0,0,0,0,1008,1022.5
248,2022-03-21T04:07:00,0.5,東北東,1.1,北東,3.5,92.3,0,0,0,0,0,0,1008,1022.5
249,2022-03-21T04:08:00,0.5,北東,1.1,北東,3.4,92,0,0,0,0,0,0,1008,1022.5
250,2022-03-21T04:09:00,0.5,北東,1.1,北東,3.4,92.1,0,0,0,0,0,0,1008,1022.5
251,2022-03-21T04:10:00,0.5,北東,1.1,北東,3.4,92.2,0,0,0,0,0,0,1008,1022.5
252,2022-03-21T04:11:00,0.6,北東,1.1,北東,3.3,92.1,0,0,0,0,0,0,1008,1022.5
253,2022-03-21T04:12:00,0.5,北東,1.1,北東,3.5,92.4,0,0,0,0,0,0,1008,1022.5
254,2022-03-21T04:13:00,0.5,北北東,1.1,北東,3.4,92.5,0,0,0,0,0,0,1008,1022.5
255,2022-03-21T04:14:00,0.5,北北東,1.1,北北東,3.4,92.3,0,0,0,0,0,0,1008,1022.5
256,2022-03-21T04:15:00,0.5,北北東,1.1,北北東,3.4,92.3,0,0,0,0,0,0,1008,1022.5
257,2022-03-21T04:16:00,0.5,北,1.3,北,3.4,92.3,0,0,0,0,0,0,1008,1022.5
258,2022-03-21T04:17:00,0.5,北,1.3,北,3.4,92.5,0,0,0,0,0,0,1008,1022.5
259,2022-03-21T04:18:00,0.6,北,1.3,北,3.5,92.7,0,0,0,0,0,0,1008.1,1022.6
260,2022-03-21T04:19:00,0.5,北,1.3,北,3.4,92.6,0,0,0,0,0,0,1008.1,1022.6
261,2022-03-21T04:20:00,0.5,北北西,1.3,北,3.4,92.5,0,0,0,0,0,0,1008.1,1022.6
262,2022-03-21T04:21:00,0.5,北北西,1.3,北,3.4,92.5,0,0,0,0,0,0,1008.1,1022.6
263,2022-03-21T04:22:00,0.6,北北西,1.3,北,3.3,92.6,0,0,0,0,0,0,1008.1,1022.6
264,2022-03-21T04:23:00,0.6,北西,1.3,北,3.3,92.4,0,0,0,0,0,0,1008.1,1022.6
265,2022-03-21T04:24:00,0.6,北西,1.3,北,3.3,92.6,0,0,0,0,0,0,1008.1,1022.6
266,2022-03-21T04:25:00,0.6,北西,1.3,北,3.2,92.6,0,0,0,0,0,0,1008.1,1022.6
267,2022-03-21T04:26:00,0.6,北西,1.2,北,3.4,93.1,0,0,0,0,0,0,1008.1,1022.6
268,2022-03-21T04:27:00,0.6,西北西,1.1,西,3.4,93.1,0,0,0,0,0,0,1008.1,1022.6
269,2022-03-21T04:28:00,0.6,西北西,1.1,西,3.5,93.2,0,0,0,0,0,0,1008.1,1022.6
270,2022-03-21T04:29:00,0.6,西北西,1.1,西,3.4,93.2,0,0,0,0,0,0,1008.2,1022.7
271,2022-03-21T04:30:00,0.6,西北西,1.1,西,3.4,93,0,0,0,0,0,0,1008.2,1022.7
272,2022-03-21T04:31:00,0.6,北西,1.1,西,3.4,93.2,0,0,0,0,0,0,1008.2,1022.7
273,2022-03-21T04:32:00,0.5,北西,1.1,西,3.4,93,0,0,0,0,0,0,1008.2,1022.7
274,2022-03-21T04:33:00,0.5,北西,1,北西,3.5,93.2,0,0,0,0,0,0,1008.2,1022.7
275,2022-03-21T04:34:00,0.5,北西,1,北西,3.5,93.4,0,0,0,0,0,0,1008.3,1022.8
276,2022-03-21T04:35:00,0.5,北北西,1,北西,3.6,93.4,0,0,0,0,0,0,1008.2,1022.7
277,2022-03-21T04:36:00,0.4,北北西,1,北西,3.5,93.3,0,0,0,0,0,0,1008.2,1022.7
278,2022-03-21T04:37:00,0.4,北北西,1,北西,3.4,93,0,0,0,0,0,0,1008.2,1022.7
279,2022-03-21T04:38:00,0.4,北北西,1,北西,3.4,92.8,0,0,0,0,0,0,1008.2,1022.7
280,2022-03-21T04:39:00,0.4,北北西,1,北西,3.4,92.7,0,0,0,0,0,0,1008.3,1022.8
281,2022-03-21T04:40:00,0.4,北北西,1,北西,3.5,92.9,0,0,0,0,0,0,1008.3,1022.8
282,2022-03-21T04:41:00,0.3,北北西,1,北北東,3.5,93,0,0,0,0,0,0,1008.3,1022.8
283,2022-03-21T04:42:00,0.3,北北西,1,北北東,3.4,92.6,0,0,0,0,0,0,1008.3,1022.8
284,2022-03-21T04:43:00,0.3,北北西,1.2,北,3.4,92.6,0,0,0,0,0,0,1008.3,1022.8
285,2022-03-21T04:44:00,0.4,北,1.5,北北東,3.5,92.7,0,0,0,0,0,0,1008.3,1022.8
286,2022-03-21T04:45:00,0.3,北北西,1.5,北北東,3.5,92.6,0,0,0,0,0,0,1008.4,1022.9
287,2022-03-21T04:46:00,0.4,北,1.5,北北東,3.4,92.6,0,0,0,0,0,0,1008.4,1022.9
288,2022-03-21T04:47:00,0.5,北,1.8,北北東,3.5,92.7,0,0,0,0,0,0,1008.4,1022.9
289,2022-03-21T04:48:00,0.6,北,2.3,北北東,3.5,92.8,0,0,0,0,0,0,1008.5,1023
290,2022-03-21T04:49:00,0.7,北,2.3,北北東,3.7,93.1,0,0,0,0,0,0,1008.5,1023
291,2022-03-21T04:50:00,0.8,北,2.3,北北東,3.6,93.2,0,0,0,0,0,0,1008.5,1023
292,2022-03-21T04:51:00,0.9,北,2.4,北北東,3.5,92.6,0,0,0,0,0,0,1008.5,1023
293,2022-03-21T04:52:00,1,北,2.4,北北東,3.5,92.5,0,0,0,0,0,0,1008.6,1023.1
294,2022-03-21T04:53:00,1.1,北北東,2.4,北北東,3.6,92.5,0,0,0,0,0,0,1008.5,1023
295,2022-03-21T04:54:00,1.1,北北東,2.4,北北東,3.5,92.6,0,0,0,0,0,0,1008.5,1023
296,2022-03-21T04:55:00,1.1,北北東,2.4,北北東,3.4,92,0,0,0,0,0,0,1008.5,1023
297,2022-03-21T04:56:00,1.1,北北東,2.4,北北東,3.5,91.8,0,0,0,0,0,0,1008.5,1023
298,2022-03-21T04:57:00,1.1,北北東,2.4,北北東,3.5,92.2,0,0,0,0,0,0,1008.5,1023
299,2022-03-21T04:58:00,1.1,北北東,2.4,北北東,3.5,92,0,0,0,0,0,0,1008.5,1023
300,2022-03-21T04:59:00,1.1,北北東,2.4,北北東,3.4,91.7,0,0,0,0,0,0,1008.4,1022.9
301,2022-03-21T05:00:00,1,北東,2.4,北北東,3.4,91.9,0,0,0,0,0,0,1008.4,1022.9
302,2022-03-21T05:01:00,1,北東,2.2,東北東,3.4,91.9,0,0,0,0,0,0,1008.5,1023
303,2022-03-21T05:02:00,0.9,北東,1.7,北北東,3.5,91.9,0,0,0,0,0,0,1008.5,1023
304,2022-03-21T05:03:00,0.9,北北東,1.7,北北東,3.5,92.2,0,0,0,0,0,0,1008.5,1023
305,2022-03-21T05:04:00,1,北北東,1.7,北北東,3.7,92.5,0,0,0,0,0,0,1008.5,1023
306,2022-03-21T05:05:00,1,北北東,1.7,北北東,3.6,92.7,0,0,0,0,0,0,1008.5,1023
307,2022-03-21T05:06:00,0.9,北北東,1.7,北,3.4,91.9,0,0,0,0,0,0,1008.5,1023
308,2022-03-21T05:07:00,0.8,北北東,1.7,北,3.3,91.4,0,0,0,0,0,0,1008.5,1023
309,2022-03-21T05:08:00,0.8,北,1.7,北,3.3,91.5,0,0,0,0,0,0,1008.5,1023
310,2022-03-21T05:09:00,0.7,北,1.7,北,3.3,91.6,0,0,0,0,0,0,1008.5,1023
311,2022-03-21T05:10:00,0.7,北,1.7,北,3.3,91.9,0,0,0,0,0,0,1008.5,1023
312,2022-03-21T05:11:00,0.7,北,1.7,北,3.3,91.9,0,0,0,0,0,0,1008.6,1023.1
313,2022-03-21T05:12:00,0.6,北,1.7,北,3.3,92.1,0,0,0,0,0,0,1008.5,1023
314,2022-03-21T05:13:00,0.6,北,1.6,北,3.3,91.9,0,0,0,0,0,0,1008.5,1023
315,2022-03-21T05:14:00,0.6,北,1.6,北,3.4,92.6,0,0,0,0,0,0,1008.6,1023.1
316,2022-03-21T05:15:00,0.6,北北西,1.5,北,3.4,92.4,0,0,0,0,0,0,1008.6,1023.1
317,2022-03-21T05:16:00,0.6,北北西,1.5,北,3.3,92.2,0,0,0,0,0,0,1008.6,1023.1
318,2022-03-21T05:17:00,0.6,北北西,1.6,北西,3.2,92.2,0,0,0,0,0,0,1008.6,1023.1
319,2022-03-21T05:18:00,0.7,北北西,1.6,北西,3.4,92.4,0,0,0,0,0,0,1008.6,1023.1
320,2022-03-21T05:19:00,0.7,北北西,1.6,北西,3.4,92.7,0,0,0,0,0,0,1008.6,1023.1
321,2022-03-21T05:20:00,0.8,北北西,1.6,北西,3.3,92.7,0,0,0,0,0,0,1008.6,1023.1
322,2022-03-21T05:21:00,0.8,北北西,1.8,北西,3.4,92.5,0,0,0,0,0,0,1008.7,1023.2
323,2022-03-21T05:22:00,0.9,北北西,1.9,北西,3.3,92.6,0,0,0,0,0,0,1008.7,1023.2
324,2022-03-21T05:23:00,1,北北西,1.9,北西,3.4,92.6,0,0,0,0,0,0,1008.7,1023.2
325,2022-03-21T05:24:00,1,北西,1.9,北西,3.4,92.6,0,0,0,0,0,0,1008.7,1023.2
326,2022-03-21T05:25:00,1.1,北西,1.9,北西,3.4,92.7,0,0,0,0,0,0,1008.8,1023.3
327,2022-03-21T05:26:00,1.2,北西,1.9,北西,3.4,92.7,0,0,0,0,0,0,1008.8,1023.3
328,2022-03-21T05:27:00,1.2,北西,1.9,北西,3.4,92.4,0,0,0,0,0,0,1008.8,1023.3
329,2022-03-21T05:28:00,1.3,北西,1.9,北西,3.4,92.4,0,0,0,0,0,0,1008.8,1023.3